Weather Service Report


651 
ASUS46 KLOX 260903
RWRCA 

SOUTHERN CALIFORNIA WEATHER ROUNDUP
NATIONAL WEATHER SERVICE OXNARD CALIFORNIA
200 AM PDT MON SEP 26 2016

NOTE: "FAIR" INDICATES FEW OR NO CLOUDS BELOW 12,000 FEET WITH NO 
SIGNIFICANT WEATHER AND/OR OBSTRUCTIONS TO VISIBILITY.

  -  STATIONS PRECEEDED BY AN ASTERISK (*) ARE NOT NWS OR FAA 
     STATIONS AND ARE NOT SUBJECT TO NWS AND FAA QUALITY CONTROL.

CAZ041-042-087-261000-
LA AND ORANGE COUNTY COASTAL AREAS

  
CITY           SKY/WX    TMP DP  RH WIND       PRES   REMARKS
L.A. DOWNTOWN  CLEAR     72  45  37 CALM      29.93S                  
L.A. AIRPORT   CLEAR     76  43  30 CALM      29.93S                  
LONG BEACH     CLEAR     70  52  52 VRB3      29.93S                  

CITY           SKY/WX    TMP DP  RH WIND       PRES   REMARKS
FULLERTON      CLEAR     72  43  35 CALM      29.92S                  
*GETTY CENTER    N/A    N/A N/A N/A VRB7G13     N/A                   
HAWTHORNE      CLEAR     73  50  44 SW5       29.94R                  
*LEO CARRILLO    N/A     79  24  13 N9          N/A                   
*LOS ALAMITOS  FAIR      66  54  65 NW2       29.92F                  
*REDONDO BEACH   N/A     66  51  56 CALM      29.93S                  
SANTA ANA      CLEAR     70  53  54 S3        29.92F                  
STA MONICA APT CLEAR     71  40  32 N5        29.93F                  
*STA MON PIER    N/A     83  35  18 W7        29.85S                  
*UCLA            N/A     81  27  13 N6        29.92S                  

$$

CAZ547-548-048-261000-
LA COUNTY VALLEYS AND INLAND EMPIRE

  
CITY           SKY/WX    TMP DP  RH WIND       PRES   REMARKS
BURBANK        CLEAR     74  33  22 NE5       29.97S                  
VAN NUYS       CLEAR     71  33  24 VRB5      29.97S                  

CITY           SKY/WX    TMP DP  RH WIND       PRES   REMARKS
CORONA AIRPORT SUNNY     74  30  19 E8        29.97S                  
*CHATSWORTH      N/A     73  34  24 CALM      29.94F                  
CHINO          CLEAR     74  30  19 E6        29.98S                  
*CLAREMONT       N/A     80  30  16 NE3         N/A                   
MARCH AFB      CLEAR     67  27  22 NW3       30.02S                  
*NORTHRIDGE      N/A     70  30  23 SE3G9       N/A                   
ONTARIO        CLEAR     78  24  13 CALM      29.98S                  
*PASADENA        N/A     75  36  23 E1          N/A                   
RIVERSIDE      CLEAR     74  30  19 NE7       29.98F                  
SAN BERNARDINO FAIR      74  28  18 CALM      30.01S                  
*SAN GABRIEL     N/A     71  40  31 NW1       30.00S                  
*SAN RAFAEL HI   N/A     81  24  12 N6          N/A                   
*SAUGUS          N/A     73  17  12 S5          N/A                   
*WHITEMAN AP   NOT AVBL                                               
*WHITTIER HILL   N/A     84  26  12 E12         N/A                   
*WOODLAND HILL   N/A     68  30  24 SW2         N/A                   

$$

CAZ054-055-261000-
LA AND SAN BERNARDINO COUNTY MOUNTAINS

  
CITY           SKY/WX    TMP DP  RH WIND       PRES   REMARKS
*ACTON           N/A     81  26  13 NE13        N/A                   
*BIG BEAR AIRP SUNNY     37  21  52 CALM      30.37S                  
*BIG PINES       N/A     56  23  28 SE2         N/A                   
*CHILAO          N/A     67  19  16 E13         N/A                   
SANDBERG       CLEAR     70  17  13 CALM      30.25S                  
*WARM SPRINGS    N/A     69  18  14 NE20        N/A                   

$$

CAZ028-029-059-060-099-261000-
ANTELOPE VALLEY AND SURROUNDING AREAS

  
CITY           SKY/WX    TMP DP  RH WIND       PRES   REMARKS
LANCASTER      CLEAR     56  17  21 CALM      30.13R                  
PALMDALE       CLEAR     64  21  19 NW6       30.13R                  
*POPPY PARK      N/A     62  18  18 W6          N/A                   

CITY           SKY/WX    TMP DP  RH WIND       PRES   REMARKS
29 PALMS       CLEAR     67  29  24 W6        30.15F                  
BARSTOW/DAGGET CLEAR     65  24  21 W6        30.10S                  
BISHOP         CLEAR     49  24  37 NW3       30.28F                  
CHINA LAKE     CLEAR     62  17  17 S8        30.12S                  
EDWARDS AFB    CLEAR     65  16  15 N6        30.11R                  
MOJAVE         CLEAR     66  19  16 N9        30.15F                  
NEEDLES        CLEAR     82  33  17 N15       30.01F                  
VICTORVILLE    CLEAR     63  19  19 CALM      30.15S                  

$$

CAZ039-040-261000-
VENTURA AND SANTA BARBARA COUNTY COAST

  
CITY           SKY/WX    TMP DP  RH WIND       PRES   REMARKS
CAMARILLO      CLEAR     63  46  54 NW5       29.93S                  
NWS OXNARD       N/A     65  48  55 CALM      29.92S                  
OXNARD AIRPORT CLEAR     65  52  62 CALM      29.93S                  
*POINT MUGU      N/A    N/A N/A N/A MISG      29.93F                  
SBA APT/GOLETA CLEAR     62  44  51 MISG      29.91F                  
*SANTA BARBARA   N/A     71  53  52 CALM      30.01R                  
*VENTURA         N/A     67  35  30 NW2       29.91S                  

$$

CAZ044-045-261000-
VENTURA COUNTY VALLEYS

  
CITY           SKY/WX    TMP DP  RH WIND       PRES   REMARKS
*SIMI VALLEY     N/A     81  29  15 NE6       29.88F                  
*WESTLAKE VILL   N/A     60  43  52 CALM      29.94F                  
*OJAI            N/A     59  37  44 SW2       29.89F                  
*FILLMORE        N/A     80  38  22 CALM      29.83R                  

$$

CAZ053-261000-
VENTURA COUNTY MOUNTAINS

  
CITY           SKY/WX    TMP DP  RH WIND       PRES   REMARKS
*LOCKWOOD VLY    N/A     61  21  21 NE1         N/A                   
*ROSE VALLEY     N/A     46  18  31 MISG        N/A                   

$$

CAZ034-035-036-261000-
CENTRAL COAST AND SANTA YNEZ VALLEY

  
CITY           SKY/WX    TMP DP  RH WIND       PRES   REMARKS
SAN LUIS OBISP CLEAR     62  38  40 SE3       29.96F                  
SANTA MARIA    CLEAR     59  39  47 E3        29.96F                  

CITY           SKY/WX    TMP DP  RH WIND       PRES   REMARKS
*CAL POLY SLO    N/A     61  37  41 CALM        N/A                   
*LOMPOC        CLEAR     57  43  59 NE3       29.96F                  
*PISMO BEACH     N/A     64  41  41 NE2       29.95F                  
*SANTA YNEZ    FAIR      63 N/A N/A CALM      29.98F                  

$$

CAZ037-038-051-261000-
SAN LUIS OBISPO COUNTY INTERIOR AND CUYAMA VALLEY

  
CITY           SKY/WX    TMP DP  RH WIND       PRES   REMARKS
*CUYAMA          N/A     59  36  41 E3        29.98S                  
PASO ROBLES    CLEAR     58  34  40 CALM      30.02S                  

$$

CAZ032-033-061-261000-
SOUTHERN DESERTS

  
CITY           SKY/WX    TMP DP  RH WIND       PRES   REMARKS
BLYTHE         CLEAR     82  33  17 N13       29.94S                  
IMPERIAL       CLEAR     71  45  39 SW6       29.88S                  
PALM SPRINGS   CLEAR     82  34  17 W7        29.97S                  
THERMAL        CLEAR     74  36  25 N5        29.90S                  

$$

ELSEWHERE ACROSS THE WESTERN UNITED STATES AND MEXICO

  
CITY           SKY/WX    TMP DP  RH WIND       PRES   REMARKS
DENVER, CO     CLEAR     49  29  46 SW10      30.42F                  
GRAND CANYON,  CLEAR     57  28  33 E12       30.42S                  
HONOLULU, HI   PTCLDY    76  66  71 NE12      30.05F                  
KAHULUI, MAUI  PTCLDY    75  69  81 NE12      30.04                   
LAKE TAHOE, CA CLEAR     40  23  50 S3        30.41F                  
LAS VEGAS, NV  CLEAR     76  24  14 NE9       30.17R                  
MAMMOTH LAKES, FAIR      45  18  33 CALM      30.48S                  
MEXICO CITY, M CLOUDY    59  55  88 SW3       30.26F                  
PHOENIX, AZ    CLOUDY    82  36  19 SE10      29.97R                  
PORTLAND, OR   CLEAR     61  56  83 W3        30.12F                  
RENO, NV       CLEAR     56  27  32 CALM      30.33S                  
SALT LAKE CITY CLEAR     51  43  74 SE7       30.42F                  
SAN DIEGO, CA  CLEAR     73  52  47 CALM      29.92S                  
SAN FRANCISCO, CLEAR     69  47  45 CALM      29.96F                  
SAN JOSE, CA   CLEAR     69  45  41 SE5       29.96F                  
SEATTLE, WA    CLEAR     57  50  77 N6        30.21F                  
TIJUANA, MEX   CLEAR     73  34  23 CALM      29.94F                  

$$
  
STATION/POSITION TIME  TEMP    WIND        PRES    VSBY  WAVE
                       AIR SEA DIR/SP/G                  HT/PER
                 (UTC) (F)     (DEG/KT/KT) (MB)    (MI)  (FT/S)
POINT ARGUELLO B NOT AVBL
WEST SANTA BARBA 0750   65 61  320/ 10/ 12 1013.4F         5/16
POINT CONCEPTION NOT AVBL
EAST SANTA BARBA 0800          220/  4/  8 1013.6F
SANTA MONICA BAY 0800   70 69   10/  6/  8 1012.9F

Return to Home page


Western Regional Climate Center, wrcc@dri.edu